Weather History for Carmi, IL

Change the Weather History Date:

Thursday, May 15, 2014

  Actual Average (KEVV) Record (KEVV)
Temperature  
Mean Temperature 56 °F 65 °F  
Max Temperature 64 °F 77 °F 92 °F (1988)
Min Temperature 48 °F 54 °F 38 °F (1977)
Degree Days  
Heating Degree Days 9 3  
Month to date heating degree days 58  
Since 1 July heating degree days 4513  
Cooling Degree Days 0 3  
Month to date cooling degree days 32  
Year to date cooling degree days 59  
Growing Degree Days 6 (Base 50)    
Moisture  
Dew Point 48 °F    
Average Humidity 81    
Maximum Humidity 97    
Minimum Humidity 48    
Precipitation  
Precipitation 0.06 in 0.17 in 1.75 in (1923)
Month to date precipitation 2.63  
Year to date precipitation 17.51  
Snow  
Snow 0.00 in 0.00 in 0.00 in (2002)
Month to date snowfall 0.0  
Since 1 July snowfall 11.8  
Snow Depth -    
Sea Level Pressure  
Sea Level Pressure 30.03 in    
Wind  
Wind Speed 10 mph (West)    
Max Wind Speed 28 mph    
Max Gust Speed 31 mph    
Visibility 9 miles    
Events Rain , Thunderstorm    
T = Trace of Precipitation, MM = Missing Value Source: NWS Daily Summary

Daily Weather History Graph

Daily Weather History Graph

Search for Another Location

Airport:

Trip Planner

Search our weather history database for the weather conditions in past years. The results will help you decide how hot, cold, wet, or windy it might be!

Date:

Astronomy

May. 15, 2014 Rise Set
Actual Time 5:41 AM CDT 7:56 PM CDT
Civil Twilight 5:12 AM CDT 8:25 PM CDT
Nautical Twilight 4:36 AM CDT 9:02 PM CDT
Astronomical Twilight 3:56 AM CDT 9:42 PM CDT
Moon 9:04 PM CDT (5/15) 6:28 AM CDT (5/15)
Length of Visible Light 15h 13m
Length of Day
14h 14m
Full, 99% of the Moon is Illuminated
May 15
Full
May 21
Last Quarter
May 28
New
Jun 5
First Quarter
Jun 12
Full

Hourly Weather History & Observations

Time (CDT) Temp. Dew Point Humidity Pressure Visibility Wind Dir Wind Speed Gust Speed Precip Events Conditions
12:15 AM 50.0 °F 48.2 °F 94% 29.95 in 10.0 mi WNW 11.5 mph 21.9 mph N/A   Overcast
12:30 AM 49.6 °F 48.0 °F 94% 29.95 in 10.0 mi WNW 11.5 mph 19.6 mph N/A   Overcast
12:55 AM 49.5 °F 48.2 °F 95% 29.96 in 10.0 mi WNW 9.2 mph - N/A   Overcast
1:15 AM 49.6 °F 48.2 °F 95% 29.95 in 7.0 mi WNW 10.4 mph - N/A   Overcast
1:35 AM 49.3 °F 48.2 °F 96% 29.95 in 4.0 mi WNW 13.8 mph 19.6 mph N/A   Overcast
1:55 AM 49.1 °F 48.2 °F 97% 29.94 in 3.0 mi WNW 13.8 mph 19.6 mph N/A   Overcast
2:15 AM 49.1 °F 48.4 °F 97% 29.94 in 5.0 mi WNW 12.7 mph 18.4 mph N/A   Overcast
2:35 AM 49.1 °F 48.2 °F 97% 29.94 in 10.0 mi WNW 12.7 mph - N/A   Overcast
2:55 AM 49.3 °F 48.2 °F 96% 29.94 in 10.0 mi NW 12.7 mph 19.6 mph N/A   Overcast
3:15 AM 49.1 °F 48.2 °F 97% 29.95 in 10.0 mi NW 9.2 mph - N/A   Overcast
3:35 AM 49.3 °F 47.7 °F 94% 29.96 in 10.0 mi WNW 10.4 mph - N/A   Overcast
3:55 AM 49.3 °F 47.7 °F 94% 29.96 in 10.0 mi WNW 9.2 mph - N/A   Overcast
4:15 AM 49.3 °F 47.5 °F 94% 29.97 in 10.0 mi WNW 10.4 mph - N/A   Overcast
4:35 AM 49.3 °F 47.3 °F 93% 29.97 in 10.0 mi WNW 15.0 mph 19.6 mph N/A   Overcast
4:55 AM 49.3 °F 47.3 °F 93% 29.98 in 10.0 mi WNW 8.1 mph - N/A   Overcast
5:15 AM 49.3 °F 47.3 °F 93% 29.98 in 10.0 mi WNW 13.8 mph 17.3 mph N/A   Overcast
5:35 AM 49.1 °F 46.9 °F 92% 29.98 in 10.0 mi WNW 10.4 mph - N/A   Overcast
5:55 AM 48.7 °F 46.6 °F 92% 29.99 in 10.0 mi WNW 10.4 mph - N/A   Overcast
6:15 AM 48.2 °F 46.6 °F 94% 30.00 in 10.0 mi WNW 10.4 mph - N/A   Overcast
6:55 AM 48.7 °F 46.6 °F 92% 30.02 in 10.0 mi West 9.2 mph - N/A   Overcast
7:15 AM 49.1 °F 46.8 °F 92% 30.03 in 10.0 mi West 10.4 mph - N/A   Overcast
7:35 AM 49.1 °F 46.8 °F 92% 30.03 in 7.0 mi West 12.7 mph 17.3 mph N/A   Overcast
7:55 AM 49.5 °F 47.1 °F 92% 30.04 in 10.0 mi WNW 10.4 mph - N/A   Overcast
8:15 AM 49.5 °F 46.9 °F 91% 30.04 in 5.0 mi West 13.8 mph 17.3 mph N/A   Overcast
8:35 AM 49.5 °F 46.8 °F 90% 30.05 in 7.0 mi West 12.7 mph 17.3 mph N/A   Overcast
8:55 AM 50.4 °F 46.8 °F 87% 30.05 in 10.0 mi WNW 13.8 mph - N/A   Overcast
9:15 AM 51.3 °F 46.9 °F 85% 30.06 in 10.0 mi WNW 11.5 mph - N/A   Overcast
9:35 AM 51.4 °F 46.8 °F 84% 30.06 in 10.0 mi NW 9.2 mph - N/A   Light Drizzle
9:55 AM 51.8 °F 46.4 °F 82% 30.07 in 10.0 mi WNW 10.4 mph 16.1 mph N/A   Overcast
10:15 AM 52.2 °F 46.8 °F 82% 30.07 in 10.0 mi WNW 9.2 mph - N/A   Overcast
10:35 AM 53.4 °F 47.7 °F 81% 30.08 in 10.0 mi West 10.4 mph - N/A   Overcast
10:55 AM 54.7 °F 46.2 °F 73% 30.08 in 10.0 mi WNW 10.4 mph 19.6 mph N/A   Overcast
11:15 AM 56.3 °F 47.1 °F 71% 30.08 in 10.0 mi WNW 15.0 mph 20.7 mph N/A   Mostly Cloudy
11:35 AM 57.4 °F 47.8 °F 70% 30.08 in 10.0 mi West 15.0 mph - N/A   Scattered Clouds
11:55 AM 58.3 °F 47.8 °F 68% 30.08 in 10.0 mi WNW 8.1 mph - N/A   Scattered Clouds
12:35 PM 59.0 °F 47.1 °F 65% 30.08 in 10.0 mi WNW 9.2 mph 18.4 mph N/A   Mostly Cloudy
12:55 PM 60.1 °F 48.4 °F 65% 30.08 in 10.0 mi WNW 9.2 mph - N/A   Mostly Cloudy
1:15 PM 60.6 °F 47.3 °F 61% 30.07 in 10.0 mi West 10.4 mph - N/A   Overcast
2:15 PM 62.1 °F 46.9 °F 58% 30.06 in 10.0 mi WNW 6.9 mph 17.3 mph N/A   Scattered Clouds
2:35 PM 61.3 °F 45.7 °F 56% 30.06 in 10.0 mi WNW 4.6 mph - N/A   Mostly Cloudy
2:55 PM 62.2 °F 46.2 °F 56% 30.05 in 10.0 mi West 5.8 mph - N/A   Mostly Cloudy
3:15 PM 61.7 °F 45.5 °F 55% 30.04 in 10.0 mi West 5.8 mph - N/A   Mostly Cloudy
3:35 PM 62.1 °F 45.5 °F 55% 30.04 in 10.0 mi WSW 5.8 mph - N/A   Overcast
3:55 PM 62.6 °F 45.3 °F 53% 30.03 in 10.0 mi West 3.5 mph - N/A   Mostly Cloudy
4:15 PM 61.9 °F 43.9 °F 52% 30.02 in 10.0 mi Calm Calm - N/A   Mostly Cloudy
4:35 PM 62.2 °F 45.3 °F 54% 30.02 in 10.0 mi Calm Calm - N/A Thunderstorm Mostly Cloudy
4:55 PM 63.5 °F 44.8 °F 51% 30.01 in 10.0 mi WNW 3.5 mph - N/A   Mostly Cloudy
5:15 PM 64.0 °F 47.5 °F 55% 30.01 in 10.0 mi South 4.6 mph - N/A   Mostly Cloudy
5:35 PM 64.2 °F 44.2 °F 48% 30.01 in 10.0 mi SW 6.9 mph - N/A   Scattered Clouds
5:55 PM 63.0 °F 45.1 °F 52% 30.01 in 10.0 mi SW 3.5 mph - N/A Thunderstorm Mostly Cloudy
6:15 PM 62.6 °F 46.4 °F 55% 30.01 in 10.0 mi SW 3.5 mph - N/A   Mostly Cloudy
6:35 PM 62.6 °F 46.9 °F 57% 30.01 in 10.0 mi South 5.8 mph - N/A   Mostly Cloudy
6:55 PM 62.1 °F 46.8 °F 57% 30.01 in 10.0 mi South 4.6 mph - N/A   Mostly Cloudy
7:15 PM 57.7 °F 47.7 °F 69% 30.04 in 10.0 mi West 27.6 mph 31.1 mph N/A   Mostly Cloudy
7:35 PM 53.8 °F 49.5 °F 85% 30.05 in 7.0 mi West 16.1 mph 24.2 mph N/A Rain Rain
7:55 PM 52.2 °F 50.0 °F 92% 30.05 in 7.0 mi West 12.7 mph - 0.02 in Rain Rain
8:15 PM 52.0 °F 50.4 °F 94% 30.05 in 7.0 mi WNW 8.1 mph - 0.02 in Rain Rain
8:35 PM 52.0 °F 50.5 °F 95% 30.06 in 7.0 mi West 5.8 mph - 0.03 in Rain Light Rain
8:55 PM 52.2 °F 50.7 °F 95% 30.07 in 10.0 mi SW 5.8 mph - 0.04 in Rain Light Rain
9:15 PM 52.0 °F 50.9 °F 96% 30.07 in 10.0 mi SSW 3.5 mph - N/A   Overcast
9:35 PM 52.0 °F 50.7 °F 95% 30.07 in 10.0 mi Calm Calm - N/A   Mostly Cloudy
9:55 PM 52.0 °F 50.9 °F 96% 30.07 in 7.0 mi SW 3.5 mph - N/A   Overcast
10:15 PM 52.0 °F 50.4 °F 94% 30.07 in 10.0 mi Calm Calm - N/A   Overcast
10:35 PM 52.0 °F 50.5 °F 95% 30.07 in 10.0 mi Calm Calm - N/A   Overcast
10:55 PM 51.8 °F 50.9 °F 97% 30.07 in 10.0 mi West 3.5 mph - N/A   Mostly Cloudy
11:15 PM 51.8 °F 50.5 °F 95% 30.06 in 10.0 mi West 3.5 mph - N/A   Scattered Clouds
11:35 PM 51.3 °F 50.2 °F 96% 30.06 in 10.0 mi West 4.6 mph - N/A   Scattered Clouds
11:55 PM 50.7 °F 49.8 °F 97% 30.06 in 7.0 mi SW 3.5 mph - N/A   Clear